軌道要素
Epoch 2019 July 16.0 TT = JDT 2458680.5
T 2019 Aug. 1.55461 TT MPCW
q 2.3335702 (2000.0) P Q
n 0.14890179 Peri. 31.20171 -0.81768679 +0.57546610
a 3.5253543 Node 184.02862 -0.56242911 -0.80419562
e 0.3380608 Incl. 12.38617 -0.12272660 -0.14868820
P 6.62
From 86 observations 2006 Mar. 26-2019 May 4, mean residual 0".6.
|